Wind_Speed
35 35 34 34 33 33 32 31 30 29 28 27 26 25 25 25 25 24 24 24 24 24 25 25 26 26 26 25 25 24 23 22 22 21 19 18 16 14 13 12 12 11 10 10 10 9 9 8 7 7 7 7 8 8 9 10 10 10 11 11 11 12 12 12 12 12 13 13 14 14 15 15 13 13 13 14 14 14 15 15 15 15 15 14 13 14 16 17
36 36 35 35 35 34 34 33 32 31 30 29 28 27 26 26 26 26 25 25 25 26 26 27 27 27 27 26 26 25 24 23 22 21 19 18 16 14 13 12 12 11 11 10 10 10 9 8 7 7 7 8 8 9 10 10 11 11 12 13 13 13 13 13 13 13 13 13 13 14 15 16 14 14 14 15 15 15 15 16 16 15 15 15 16 17 17 18
37 37 37 36 36 35 35 34 33 32 32 31 29 28 28 27 27 27 27 27 27 27 28 28 29 29 28 27 26 26 25 24 23 22 20 18 16 15 14 13 13 12 12 11 11 10 10 9 8 8 8 8 9 9 10 11 11 12 13 14 14 14 14 14 14 13 14 13 13 14 15 16 16 15 15 16 16 16 16 16 17 17 17 17 18 19 19 19
38 38 37 37 37 36 36 36 35 34 33 32 31 30 29 29 28 28 28 28 28 28 29 30 30 30 29 28 27 26 26 25 24 23 21 19 18 17 16 15 14 13 13 12 12 11 11 10 10 10 9 9 10 10 10 11 12 12 13 14 14 15 14 14 13 13 14 14 14 14 16 17 17 17 17 17 17 17 17 17 18 18 19 20 20 21 21 20
38 38 38 37 37 37 37 37 36 36 35 34 33 32 31 30 30 30 29 29 29 30 31 31 32 31 30 29 29 28 27 27 25 24 23 21 20 18 18 17 16 15 15 14 13 13 13 12 12 11 11 10 10 10 11 11 12 12 13 14 14 14 14 13 13 14 14 15 15 16 16 18 19 19 19 19 18 18 17 18 18 19 21 22 23 23 22 21
40 40 39 38 38 38 38 38 37 37 36 35 34 33 33 32 32 31 31 31 31 32 32 33 33 33 32 31 30 29 29 28 26 25 24 22 21 20 19 18 18 17 16 15 15 15 15 14 13 13 12 12 11 11 11 12 12 13 13 14 14 13 13 13 14 14 15 16 17 18 18 19 19 20 20 20 20 19 18 18 19 20 22 23 24 24 23 21
42 41 40 40 39 39 39 38 38 37 36 36 35 35 34 34 33 33 33 33 33 33 34 35 35 34 33 32 32 31 30 29 27 26 25 24 23 22 21 20 19 18 17 17 17 16 16 15 14 14 14 13 13 12 12 12 13 13 13 14 14 14 14 14 15 15 16 17 18 19 20 20 20 20 20 21 21 20 20 20 20 21 22 24 25 24 23 21
43 42 42 41 40 40 40 39 38 38 37 37 37 36 36 36 35 35 35 34 35 35 36 37 37 36 35 34 33 32 31 30 28 27 26 25 24 23 22 21 21 20 19 18 18 18 17 16 16 15 15 15 15 14 13 13 14 14 14 14 15 15 16 17 17 18 17 18 19 20 22 21 21 21 21 21 21 20 21 21 22 22 22 23 23 23 22 20
44 44 43 43 42 42 42 41 40 39 39 38 38 38 38 38 37 37 36 36 36 36 37 38 38 38 36 35 34 34 32 31 30 28 27 26 25 24 24 23 22 21 20 19 19 18 18 17 17 17 17 17 17 16 15 15 14 15 16 16 16 17 18 19 20 20 19 19 20 21 22 21 21 21 21 22 21 21 22 23 24 23 23 22 22 22 21 20
45 45 44 44 43 44 43 43 42 41 41 40 40 40 39 39 39 38 38 38 38 38 39 40 40 39 38 37 36 35 34 32 32 30 28 27 27 26 25 24 23 22 21 20 20 19 19 19 18 19 19 18 18 18 17 16 16 16 17 17 18 18 19 20 21 22 21 21 21 23 23 22 22 22 23 23 22 22 23 24 25 25 23 22 22 21 21 21
46 45 45 45 44 44 44 44 43 43 42 41 41 41 40 40 40 40 39 39 39 39 40 41 42 41 40 39 38 37 35 34 33 32 31 29 28 27 26 25 24 23 23 22 21 21 20 20 20 20 20 20 20 20 19 19 18 18 18 19 20 20 21 21 22 23 23 23 23 24 24 23 23 23 24 24 24 24 25 26 26 25 24 23 22 22 22 22
46 46 45 45 45 44 44 44 44 44 43 42 42 41 41 41 41 41 41 41 41 41 41 42 43 43 42 40 40 39 37 36 35 34 33 31 30 29 28 27 26 25 24 24 23 23 22 22 22 22 21 21 21 21 21 20 20 20 20 20 21 22 22 23 23 24 24 25 25 25 25 24 25 25 25 25 25 25 25 26 26 25 24 23 23 23 23 23
46 46 46 45 45 45 44 44 44 44 43 43 42 42 42 41 41 41 42 42 42 42 42 43 44 44 44 42 42 41 39 38 36 35 35 33 32 31 30 28 28 27 26 26 25 25 24 24 23 23 22 22 23 23 22 22 22 22 21 22 23 24 24 24 25 25 25 25 26 27 26 25 26 27 26 26 26 25 25 26 26 25 24 23 23 23 24 24
46 46 46 45 45 45 45 44 44 44 43 43 43 43 42 42 42 42 42 43 43 43 43 44 45 45 45 44 43 42 41 40 38 37 36 35 34 33 31 30 30 29 28 27 27 27 26 25 25 25 24 24 24 24 24 24 23 24 24 24 25 26 25 25 26 25 26 27 27 29 28 25 27 27 26 27 26 25 25 25 25 25 25 25 24 25 25 25
46 46 46 45 45 45 44 44 44 44 44 43 43 43 43 42 42 42 43 43 43 44 44 44 45 46 47 46 45 44 42 41 40 39 38 37 36 34 33 32 31 31 30 30 29 28 28 27 27 26 26 26 26 26 25 25 25 25 26 26 27 27 27 26 26 26 27 28 28 30 29 26 27 28 27 28 27 26 26 25 25 25 25 25 25 26 26 27
47 46 46 46 45 44 44 44 44 43 43 43 43 43 43 42 43 43 43 43 44 44 44 45 46 47 47 47 46 45 44 42 42 41 40 38 37 36 35 34 33 33 32 32 31 30 30 29 29 28 28 27 27 27 26 27 27 27 28 29 29 28 28 27 27 28 29 30 30 30 30 27 27 28 28 28 28 28 26 26 26 26 26 26 26 27 28 28
47 46 46 46 46 45 44 44 43 43 43 43 43 43 43 43 43 43 43 44 44 45 45 46 47 48 49 48 47 46 44 43 43 42 41 40 39 37 37 36 35 35 34 33 33 32 31 31 30 30 29 29 28 28 28 29 29 30 31 30 30 29 29 29 29 30 31 32 32 32 30 27 27 29 29 29 29 28 26 26 26 26 26 27 28 29 29 30
47 46 46 46 46 46 45 45 44 44 43 43 43 43 43 43 43 43 43 44 44 45 46 47 47 48 48 47 45 45 44 44 44 44 43 42 40 39 39 38 37 37 36 35 34 34 33 32 32 31 31 30 29 30 31 32 31 32 32 31 31 30 30 30 31 31 32 33 33 33 31 28 28 30 30 29 30 28 26 26 26 26 27 28 28 29 30 31
48 47 47 46 46 46 46 46 46 45 45 44 44 44 43 44 44 44 44 45 45 45 46 46 46 47 47 46 45 46 46 46 46 45 44 43 42 41 41 40 39 39 38 37 36 36 35 34 33 33 31 30 31 32 34 34 33 33 33 33 32 32 32 32 33 34 34 35 34 34 32 30 30 30 30 31 30 27 26 27 28 28 28 29 29 30 31 31
50 49 48 47 46 46 46 47 47 46 46 46 45 45 44 44 44 45 45 45 44 45 46 46 46 47 48 48 48 48 48 48 47 46 45 45 44 43 42 42 41 41 40 39 38 37 36 36 35 33 32 32 34 35 35 34 34 34 34 34 34 34 34 34 35 36 37 37 36 35 35 33 31 29 30 33 31 27 26 28 29 29 29 30 30 31 32 33
52 51 50 49 48 47 47 47 47 47 47 47 46 46 46 45 45 45 45 45 45 46 47 47 48 48 49 49 49 49 48 48 48 47 47 46 45 45 44 43 43 42 42 41 40 39 38 37 35 33 33 35 36 37 36 35 35 36 36 36 36 36 35 35 37 38 39 40 39 37 37 35 33 31 31 32 31 28 28 29 29 30 31 31 32 33 34 35
54 53 52 51 50 49 49 49 48 48 47 47 47 47 47 46 47 47 47 47 47 47 48 49 49 49 49 50 49 49 49 48 48 48 48 47 47 46 46 46 45 44 43 42 41 40 39 37 35 35 36 37 38 38 37 37 37 37 38 38 38 37 38 38 39 40 41 42 41 40 40 37 35 33 32 30 30 30 30 30 30 31 32 32 33 34 35 36
56 55 54 53 52 51 51 50 50 49 48 48 48 48 49 48 48 48 49 50 49 49 49 50 50 50 50 50 50 49 49 49 49 49 49 49 49 48 48 47 46 45 44 43 42 41 40 38 37 38 38 38 38 38 39 39 39 39 39 39 40 39 40 41 41 42 43 44 43 42 42 40 36 34 32 29 30 30 30 30 30 31 32 33 35 36 37 38
58 57 56 55 55 54 53 52 51 50 50 50 50 50 51 50 50 50 51 52 52 51 50 51 51 51 51 51 51 51 51 51 51 51 50 50 50 50 49 47 46 46 45 43 42 42 41 40 40 39 39 39 39 40 40 41 40 40 40 41 42 41 43 44 44 44 44 44 44 43 45 42 36 34 31 29 30 29 29 30 31 32 34 35 36 37 37 38
59 58 58 57 57 56 55 55 53 51 52 52 51 51 52 52 52 52 53 55 55 53 52 52 53 53 52 52 52 52 52 52 51 51 51 50 50 50 49 48 47 46 45 44 44 44 43 42 42 41 40 40 41 41 42 42 42 41 42 43 44 44 45 46 45 45 45 45 43 43 46 44 36 32 30 29 30 30 29 30 31 33 35 36 36 37 37 37
62 60 59 58 58 58 58 57 54 53 54 53 53 53 53 53 54 54 54 57 59 56 53 53 53 54 53 54 54 53 54 54 52 52 51 50 50 50 49 48 48 47 45 44 45 46 45 43 42 42 42 42 43 43 43 43 43 44 45 45 46 46 46 46 45 45 46 46 44 44 46 45 37 31 30 30 32 32 30 30 31 34 37 36 36 35 35 35
64 63 62 61 60 60 59 58 56 56 55 54 55 55 55 55 55 55 54 58 61 57 54 55 56 55 54 55 55 54 57 56 53 52 52 51 51 50 50 50 49 47 46 45 47 48 47 44 43 44 44 45 45 44 43 43 45 48 48 47 46 46 45 45 45 45 46 46 47 46 46 45 39 32 31 32 34 34 30 29 30 34 36 36 35 34 33 33
65 64 63 62 62 62 61 59 59 58 58 58 58 57 57 57 57 56 56 59 62 59 56 57 57 58 57 56 56 57 59 58 55 54 52 52 52 51 51 51 49 48 46 47 49 49 48 47 45 45 47 47 46 45 45 46 48 50 49 47 45 44 44 44 44 45 45 46 48 46 45 45 41 35 35 37 37 34 30 29 30 33 35 35 33 32 31 30
66 66 65 64 64 63 63 62 60 60 61 61 61 60 60 60 60 58 59 62 63 61 60 58 58 59 60 60 59 59 59 59 57 55 53 53 53 52 52 50 50 49 48 49 49 49 50 49 48 47 48 48 47 47 48 48 49 49 48 47 45 44 44 44 45 45 46 47 48 46 44 45 43 40 39 40 39 36 33 32 33 34 36 34 32 31 29 28
64 64 65 66 66 65 65 63 62 62 63 62 62 62 62 62 62 61 63 65 64 64 63 61 59 59 60 61 61 60 60 59 58 56 54 53 53 52 51 50 50 50 50 49 49 50 51 51 50 49 48 48 49 50 50 49 49 49 49 48 47 46 46 46 47 47 48 49 47 46 45 46 46 44 41 42 42 39 38 37 36 37 37 35 32 30 28 27
61 61 61 62 63 65 65 64 63 63 63 63 64 64 64 64 63 65 67 66 65 66 67 64 61 61 61 61 61 60 59 59 58 57 56 54 54 53 52 51 51 51 51 51 51 51 52 52 52 52 51 51 52 53 52 51 50 49 49 49 48 48 48 48 49 49 50 50 47 47 47 48 50 48 45 46 46 43 42 41 39 38 36 33 31 29 27 26
58 59 60 60 60 62 62 62 64 66 66 65 66 66 66 67 68 71 70 67 68 71 70 67 65 64 63 62 62 61 60 60 59 59 58 57 56 55 54 53 53 52 54 54 53 53 54 54 55 56 56 56 54 53 52 51 50 48 48 47 47 48 49 51 51 50 51 50 48 48 50 53 55 52 48 48 47 46 45 42 39 36 32 30 29 27 26 25
55 57 59 60 60 61 60 61 63 66 68 68 69 70 70 72 74 72 69 68 71 73 71 70 70 68 66 65 64 64 63 63 62 61 60 59 58 57 56 56 55 55 56 55 55 55 56 57 58 58 58 56 54 52 50 48 47 47 47 47 48 49 52 53 52 51 51 50 50 51 54 57 57 52 49 47 46 46 44 41 38 34 30 29 28 27 26 25
51 53 58 60 61 61 61 62 62 64 66 69 72 74 75 77 75 70 68 68 71 71 70 71 73 72 70 68 67 66 65 65 64 62 62 61 60 60 58 58 57 56 56 56 57 58 59 59 59 57 57 55 53 51 49 48 48 50 51 51 52 53 53 52 51 52 53 54 54 55 57 58 55 51 50 48 46 44 41 39 37 34 30 29 28 27 26 25
49 50 55 59 62 62 62 63 64 65 67 68 72 77 80 79 71 67 69 69 70 70 69 72 74 73 72 70 68 67 67 66 65 64 64 63 62 61 60 59 58 57 57 57 58 59 59 59 58 56 55 55 54 53 52 51 52 53 54 55 56 54 51 50 52 54 56 57 58 57 57 55 52 50 49 48 45 41 38 37 37 35 32 30 28 26 26 25
50 48 50 55 60 62 63 65 65 67 69 69 73 77 78 73 66 66 69 69 69 69 68 71 74 73 71 70 68 67 66 66 65 64 64 63 62 60 59 58 57 58 57 56 57 57 57 58 57 56 56 56 56 55 55 55 55 57 58 58 57 53 51 52 55 57 58 59 57 55 53 51 50 47 44 45 43 39 36 36 35 35 33 30 27 26 26 26
51 49 49 51 55 59 62 64 65 66 69 72 77 77 72 68 64 65 68 68 68 69 69 71 72 70 69 68 67 66 65 65 64 63 62 61 62 60 58 57 57 57 56 55 55 55 56 58 59 58 58 58 57 57 58 58 59 60 60 59 55 54 55 56 57 58 59 59 57 53 51 50 49 45 40 41 41 38 35 34 33 33 31 30 28 28 28 28
54 53 52 48 50 54 57 60 63 65 67 72 77 76 70 67 65 65 67 68 68 70 70 71 70 68 68 67 66 65 65 65 64 63 62 61 62 60 58 58 58 57 56 55 56 57 58 60 62 62 61 60 60 59 60 60 61 61 60 59 56 57 59 58 59 59 59 60 57 53 51 48 46 44 41 39 36 34 34 32 31 31 31 31 30 30 31 30
58 57 53 47 47 52 54 56 58 60 62 66 70 70 66 65 65 67 69 67 67 69 71 70 69 69 69 67 66 66 67 66 64 63 62 61 61 58 57 58 58 58 56 56 57 58 58 60 63 64 63 62 61 61 61 60 60 60 59 60 60 60 60 60 60 60 59 60 58 53 49 45 44 43 40 36 32 30 31 31 30 31 31 32 32 33 33 32
62 60 54 49 49 51 51 53 57 59 60 62 64 63 60 60 63 67 69 68 67 67 67 65 66 68 68 66 65 66 67 67 65 64 63 62 60 57 55 56 56 55 54 54 55 55 57 60 62 63 63 63 61 60 59 58 58 59 59 60 60 60 60 60 59 58 57 56 54 52 49 45 45 44 38 33 30 28 29 29 30 31 32 33 34 35 35 35
65 65 58 52 52 51 50 54 60 64 65 63 62 60 58 60 61 63 65 68 70 70 68 67 68 69 67 66 66 67 68 69 67 66 65 62 60 56 54 54 53 52 52 54 54 54 57 58 59 61 61 61 59 58 58 58 58 59 59 59 59 58 58 58 58 56 54 52 50 51 50 45 45 47 41 34 30 28 29 30 30 32 33 35 36 37 37 37
65 66 61 58 57 55 55 56 59 65 70 68 62 59 59 60 59 59 60 63 66 67 67 68 68 69 69 69 70 70 71 71 69 68 65 62 59 57 56 56 56 57 57 58 58 57 58 58 58 60 61 60 59 59 59 59 59 58 59 59 59 58 57 56 54 52 50 50 48 49 50 45 43 46 42 35 31 29 29 30 31 33 34 36 36 36 37 38
64 65 64 63 61 60 61 61 58 61 68 69 64 62 61 60 60 61 60 60 61 61 63 64 64 65 66 67 69 71 71 71 71 69 66 64 62 60 60 61 62 61 61 61 60 59 60 60 59 60 60 59 59 59 59 59 59 60 60 59 58 56 53 52 51 50 50 50 48 48 50 46 43 44 41 35 32 30 30 31 32 33 34 35 36 37 39 40
62 63 66 67 65 63 65 66 63 61 61 63 63 64 63 62 63 64 63 63 63 63 64 65 64 63 63 64 66 67 67 68 68 66 65 65 64 62 63 64 63 63 62 59 58 58 59 59 58 59 60 60 60 60 60 59 59 58 57 56 54 52 50 51 51 50 51 50 48 48 49 45 44 44 40 34 32 32 32 32 33 34 35 36 38 39 40 40
62 64 66 67 67 68 68 68 67 64 60 60 62 64 64 65 65 64 64 64 64 64 65 64 64 63 63 64 65 65 65 65 64 64 64 64 63 62 63 64 63 63 61 59 58 58 57 56 56 58 61 62 62 61 58 55 55 54 51 50 49 48 48 47 46 47 49 49 49 49 46 42 43 43 39 35 33 33 33 34 36 38 39 38 39 39 39 40
64 65 66 67 69 70 71 70 70 69 65 61 63 64 65 66 64 63 65 66 65 64 65 65 65 64 64 63 64 65 67 67 67 68 67 65 63 63 63 64 63 63 62 61 62 60 58 59 59 60 61 60 59 58 55 53 53 51 49 48 48 48 47 46 46 48 51 50 49 46 44 42 43 41 37 35 35 35 37 38 40 40 39 38 39 40 40 41
66 66 66 66 68 70 72 71 72 73 69 64 63 63 63 63 62 63 66 68 66 66 67 67 68 67 66 65 66 67 68 69 70 71 69 66 64 64 64 64 64 64 64 63 63 62 62 63 63 61 60 58 56 56 55 53 51 49 48 49 50 49 49 51 52 51 51 49 46 43 44 44 41 38 37 38 39 39 40 41 41 41 41 40 40 41 42 43
66 67 66 66 68 70 71 71 71 72 72 69 66 62 60 60 62 64 66 65 65 66 68 70 71 70 69 68 68 69 68 67 68 68 67 66 66 66 65 64 64 64 63 63 63 62 62 64 64 62 60 57 56 56 53 52 51 50 49 48 48 48 50 52 52 51 50 50 47 45 47 45 41 39 40 41 40 40 42 43 45 46 45 44 43 43 45 46
65 66 66 66 68 69 70 70 69 67 69 70 70 66 61 59 61 63 64 64 65 65 67 70 71 70 68 67 67 68 67 65 66 65 64 65 65 65 65 65 65 63 61 61 61 61 61 62 62 62 60 57 56 55 52 51 52 52 51 51 50 52 53 54 52 51 52 52 50 49 48 45 43 42 41 39 39 42 46 47 48 47 46 46 46 47 48 49
67 66 66 67 67 67 69 71 70 67 65 67 71 71 66 62 61 60 60 62 63 62 63 67 68 67 67 67 68 68 66 65 64 63 62 63 63 62 62 63 63 61 60 61 61 61 61 62 61 61 60 57 54 54 52 51 52 52 52 52 52 55 57 57 55 53 53 51 48 48 48 47 45 41 38 39 42 45 48 48 47 47 47 48 48 48 49 50
68 68 68 68 67 67 68 70 71 71 69 67 68 69 68 66 63 59 56 58 59 58 60 62 63 65 68 69 69 69 67 65 64 62 61 61 60 59 58 58 59 59 59 60 60 60 59 59 58 60 61 58 53 52 52 52 54 55 53 51 52 56 58 57 54 52 51 49 47 49 50 47 43 40 40 44 46 47 47 47 46 48 49 50 51 50 50 50
69 70 70 70 69 68 68 69 71 72 73 71 68 67 68 68 65 60 57 57 58 58 60 61 61 64 67 69 69 67 63 60 60 60 59 59 58 58 57 58 59 59 57 57 58 58 57 57 57 60 62 58 54 54 53 54 59 60 54 51 54 57 57 55 53 52 51 49 50 52 50 45 44 45 47 48 47 47 48 48 49 50 50 51 52 52 52 53
Wind_Direction
211 210 210 211 210 210 209 209 209 209 210 210 211 211 211 211 210 209 207 205 202 200 197 195 193 191 189 188 187 186 184 182 182 183 183 183 186 188 190 193 196 199 201 202 206 209 210 210 216 224 234 244 250 256 260 263 266 269 270 271 273 274 275 276 278 279 281 284 286 288 289 293 297 298 297 296 296 295 295 296 297 298 300 300 299 297 298 299
213 213 212 213 213 212 212 211 211 211 211 212 212 213 213 213 212 211 209 207 204 202 199 197 195 193 192 191 190 189 187 187 187 187 188 189 192 195 198 201 204 207 208 209 212 217 218 218 224 232 240 248 255 259 264 267 270 274 276 276 276 275 276 277 278 279 280 282 284 286 289 292 296 298 297 297 296 295 295 295 296 296 296 296 296 296 296 296
216 215 215 215 215 215 214 214 213 213 213 213 214 215 215 215 214 213 211 209 206 204 201 199 197 195 195 194 194 192 191 191 191 191 193 195 198 201 204 207 209 211 213 214 217 222 224 227 231 238 244 252 259 264 268 272 273 274 275 275 275 275 276 277 279 280 281 281 282 286 288 291 295 296 296 297 295 294 293 294 294 293 293 294 295 294 293 292
219 219 218 218 218 217 217 216 215 214 214 215 215 216 216 216 216 215 214 212 209 206 203 201 199 198 197 197 198 196 195 195 196 196 198 200 202 204 207 209 211 214 215 216 220 224 227 232 236 241 247 254 261 267 271 274 275 273 273 273 273 275 276 278 279 280 280 282 283 285 289 293 295 296 296 296 293 291 291 292 292 293 294 295 294 293 293 292
221 221 221 221 220 219 218 217 216 215 215 216 216 217 218 218 218 217 216 214 211 209 206 203 202 201 200 200 201 200 199 200 199 201 202 203 205 207 209 211 214 216 218 219 222 226 230 234 237 242 248 255 263 269 274 276 276 275 273 272 273 275 276 277 278 278 280 282 285 287 289 292 295 296 296 294 292 290 289 289 291 293 294 294 294 294 295 295
222 222 222 222 222 220 219 217 216 216 216 217 218 219 220 220 219 218 217 216 213 210 207 205 204 203 203 203 204 203 203 203 203 205 206 206 208 210 212 214 216 219 221 223 225 228 232 236 240 245 250 256 263 268 273 276 277 275 274 274 275 276 275 275 276 277 281 285 288 289 290 291 293 294 294 292 290 290 290 290 290 291 292 293 294 294 295 295
222 222 222 222 222 220 219 217 217 217 217 218 219 220 221 222 222 220 219 218 215 212 209 207 206 206 205 205 207 207 207 207 207 209 210 210 211 213 215 217 220 222 224 227 229 233 236 240 243 247 252 258 263 267 271 274 276 277 276 277 277 278 277 276 275 277 281 286 289 290 290 290 291 291 290 289 290 291 292 291 290 290 291 292 293 293 294 293
222 222 222 222 222 220 219 218 218 218 220 220 221 222 223 223 223 223 221 220 217 214 211 209 208 208 207 208 209 210 211 210 211 212 213 214 215 217 219 220 223 225 227 230 233 237 239 243 246 248 253 260 264 266 269 272 275 278 279 279 280 280 279 279 278 279 281 284 287 288 289 290 291 290 289 288 289 291 291 291 291 291 291 291 290 290 290 289
222 222 223 223 222 221 220 220 220 221 222 223 224 224 224 225 225 224 223 221 219 216 213 210 210 209 209 210 211 213 214 213 214 215 215 217 219 220 222 224 226 228 230 233 236 239 242 244 246 249 254 260 265 268 269 271 275 278 280 281 281 281 281 281 282 283 285 286 287 288 288 290 291 291 289 288 290 291 290 291 291 291 291 290 288 286 284 283
222 222 223 223 223 223 222 222 223 223 224 225 226 226 226 226 226 226 225 223 221 219 216 213 212 211 211 212 212 215 216 216 217 218 219 219 221 223 225 227 229 231 234 236 239 241 243 245 247 250 254 258 263 267 270 273 276 278 281 283 283 283 283 283 284 286 288 290 291 291 290 291 291 290 288 289 291 291 291 291 291 291 290 289 286 283 282 282
221 222 223 224 224 225 225 225 225 226 226 227 227 228 228 228 228 227 227 225 223 221 218 215 214 213 213 214 214 216 217 218 220 220 222 222 223 226 228 229 232 234 236 238 241 244 247 249 250 252 254 257 260 265 269 273 276 278 281 283 284 284 283 283 285 287 290 292 292 292 292 293 292 289 288 290 291 290 291 291 291 291 290 288 285 282 282 283
221 221 222 223 224 225 226 226 227 227 227 227 228 228 228 229 229 229 228 227 225 223 220 218 216 215 215 216 217 218 218 220 222 223 224 225 227 228 230 232 234 236 238 241 243 246 249 251 254 256 257 259 260 263 267 271 275 278 281 283 283 283 283 284 285 287 291 292 293 292 292 293 292 289 289 290 290 290 291 290 290 290 288 286 283 282 282 283
221 222 222 223 223 224 225 226 227 228 228 228 228 228 228 228 228 229 229 228 226 224 222 220 218 217 217 217 218 220 220 222 223 225 226 228 229 231 232 234 236 238 240 243 246 248 251 254 257 259 260 262 263 265 267 270 274 277 280 281 282 282 283 284 286 289 292 293 293 291 292 293 290 290 290 289 289 290 289 289 289 288 286 284 282 281 281 283
221 222 222 223 223 224 224 225 227 227 227 228 228 228 228 227 228 228 228 228 228 226 224 222 220 219 218 219 220 221 222 223 225 226 228 229 231 233 234 236 238 240 242 245 247 250 253 256 259 261 263 264 265 266 268 270 273 276 278 280 280 281 282 284 287 291 292 292 291 290 292 292 290 291 290 288 288 289 288 288 288 287 285 283 282 281 281 283
222 222 222 223 224 224 225 225 226 227 227 228 228 228 228 227 227 227 227 228 228 227 225 223 222 221 220 220 221 222 223 225 226 228 229 231 232 234 236 238 240 242 244 246 248 251 254 257 260 262 264 266 267 268 270 271 273 276 278 278 278 280 283 286 289 291 290 290 290 290 291 290 289 290 288 288 289 288 289 289 287 286 284 283 282 281 282 282
222 222 223 223 223 224 225 226 226 227 228 228 228 228 228 227 227 226 226 227 227 227 226 225 223 222 221 221 222 224 225 226 228 229 231 232 234 236 238 240 242 243 245 247 249 252 254 258 260 263 265 267 269 271 272 272 273 275 275 276 279 283 286 287 289 290 289 289 289 289 290 290 288 287 287 288 288 288 289 288 287 286 285 284 283 282 282 282
223 223 224 224 223 224 225 226 226 227 228 228 229 228 228 227 227 227 226 226 226 226 226 225 224 223 223 222 223 225 226 228 229 231 233 234 235 237 239 241 243 244 246 248 250 252 255 257 261 264 266 269 272 274 273 272 272 272 273 278 282 285 286 287 288 289 289 289 289 288 290 290 286 284 286 287 287 287 287 287 288 288 286 284 283 283 282 282
224 224 224 225 225 225 225 225 226 226 227 228 229 229 228 227 227 227 226 226 226 226 225 225 225 224 224 224 224 226 228 229 231 232 234 235 237 239 240 242 244 246 247 249 250 252 255 258 262 265 269 272 273 273 272 271 271 273 277 281 283 284 285 286 288 289 289 288 288 288 289 287 283 284 286 285 284 284 287 288 289 287 286 285 284 283 283 283
224 224 224 225 226 226 226 226 226 226 227 228 228 228 228 228 228 227 227 226 226 226 225 225 225 225 224 224 225 226 228 230 231 233 235 236 238 240 241 243 245 246 248 250 251 253 256 259 263 268 271 272 271 271 271 272 274 277 280 281 282 283 285 287 289 289 288 288 287 287 287 284 281 282 283 281 280 282 287 289 288 286 285 285 284 284 284 284
225 225 225 225 226 226 227 228 227 227 227 227 228 228 228 229 229 228 227 227 226 226 226 225 225 225 225 224 225 226 228 230 232 234 236 238 239 241 242 244 245 247 249 250 252 254 257 260 264 268 270 270 271 272 273 275 277 279 280 281 282 283 286 288 288 288 288 287 286 285 284 284 282 279 276 277 279 281 284 285 285 285 283 283 283 283 283 282
225 225 226 226 226 226 227 228 229 228 228 229 229 229 229 229 229 229 228 227 226 226 226 225 225 225 225 226 226 227 229 231 233 235 237 239 240 242 243 245 246 247 249 251 253 255 257 261 265 268 268 269 271 272 274 276 277 278 279 280 282 285 287 287 287 288 287 286 286 285 283 283 281 276 271 272 277 279 281 283 283 283 282 282 282 281 280 280
225 226 226 226 226 226 227 228 229 229 229 230 230 230 230 229 229 229 229 228 227 226 226 226 226 226 227 227 228 229 231 232 234 236 238 240 241 243 244 245 246 248 250 252 254 256 258 261 264 266 267 269 271 273 274 274 275 277 279 281 283 285 286 286 286 287 286 286 286 285 284 283 280 276 271 271 276 280 283 284 284 283 282 282 281 280 280 280
225 225 226 227 227 227 227 228 229 229 230 231 231 231 231 230 230 231 231 230 228 228 228 227 227 227 228 229 229 230 231 233 235 236 238 239 241 242 243 245 247 249 251 253 255 257 259 262 264 266 267 269 270 272 273 274 275 277 279 281 283 284 285 285 285 285 285 287 286 286 284 282 279 275 271 274 279 282 286 287 286 285 284 284 283 281 279 278
226 226 226 226 227 228 228 228 229 230 231 231 232 232 232 232 231 232 232 232 230 229 229 230 229 228 229 231 231 232 233 233 235 237 238 240 241 243 245 246 248 250 252 254 256 258 260 262 264 265 267 268 270 271 273 275 276 277 279 281 283 283 284 284 284 285 285 286 286 287 284 280 277 274 272 278 282 283 285 287 287 287 286 286 285 282 280 278
227 227 227 227 228 228 228 229 229 230 231 232 232 233 233 233 233 233 234 235 232 229 230 231 232 231 231 233 233 234 235 235 237 239 240 242 243 245 246 248 249 251 254 256 258 259 260 262 264 265 267 268 270 271 272 274 276 278 279 281 282 282 283 284 285 285 284 284 284 285 283 279 275 272 273 278 280 280 281 285 288 286 284 286 286 284 282 281
228 228 228 229 229 229 229 230 230 230 232 232 233 234 234 235 235 235 236 237 234 230 230 232 234 234 233 235 235 236 238 237 238 240 241 243 245 246 248 250 251 253 255 257 258 259 260 262 264 265 267 268 269 270 272 274 277 278 279 281 281 282 283 283 283 283 283 283 282 280 279 279 276 273 275 278 277 276 280 286 287 284 283 285 287 285 283 282
229 229 229 229 230 231 231 231 231 231 232 233 234 234 235 236 237 237 239 240 236 231 230 232 234 235 235 236 237 239 240 239 240 242 243 245 246 248 249 250 252 254 255 257 258 259 260 261 263 265 266 267 268 271 273 276 277 278 279 280 280 280 281 280 280 280 280 281 279 277 277 278 277 274 276 275 272 276 285 289 285 280 282 284 285 284 282 282
230 230 230 230 231 232 232 231 231 232 232 233 234 235 235 236 237 237 239 240 237 231 230 231 233 235 236 237 237 239 240 240 241 242 243 245 247 248 249 251 253 254 256 257 258 259 261 261 262 264 266 267 270 273 274 275 276 277 278 278 278 278 277 278 278 278 278 278 276 275 277 278 275 274 275 272 272 280 290 289 283 280 282 282 282 281 279 279
230 230 231 231 231 232 232 232 232 233 233 234 235 235 235 235 236 237 238 238 236 234 233 231 232 234 236 237 238 239 241 241 242 243 244 246 247 249 250 252 253 255 255 257 259 260 261 262 263 264 266 269 271 272 272 273 274 275 276 276 276 275 275 276 276 276 277 276 275 276 279 280 276 273 274 274 278 288 292 288 284 282 281 280 278 276 275 276
231 230 230 231 232 233 233 233 233 234 235 235 236 236 235 236 236 237 237 237 237 237 236 233 232 233 236 238 239 240 242 243 245 246 247 248 249 250 251 252 253 255 256 257 259 260 261 263 264 266 267 269 270 271 271 272 272 273 273 274 274 274 274 274 274 275 275 274 275 277 280 281 278 273 274 278 284 290 291 289 285 283 282 278 273 270 271 272
234 233 232 231 232 233 234 234 234 235 235 236 237 237 236 236 236 236 237 238 240 241 240 238 235 234 236 238 240 242 243 245 246 248 249 249 250 250 251 253 255 256 258 259 260 261 262 264 266 267 268 268 268 269 269 270 271 271 272 272 273 273 273 272 271 271 272 274 277 279 279 278 275 275 278 282 286 290 291 290 288 286 281 272 266 265 268 270
236 236 235 235 233 232 233 233 235 236 235 235 237 237 237 237 236 236 238 240 241 242 242 241 239 237 237 238 240 242 243 244 245 247 249 249 250 251 252 254 256 257 259 259 261 262 263 265 266 267 267 267 268 269 270 271 272 272 272 272 271 271 271 270 270 270 272 276 279 279 278 275 273 274 278 282 287 290 291 290 290 286 275 264 262 264 266 268
237 238 238 237 236 234 233 232 234 237 237 237 237 237 237 237 237 239 240 240 242 244 244 244 243 241 240 239 240 241 243 245 246 247 248 250 251 252 253 254 255 257 259 261 262 264 264 264 265 266 267 268 269 270 270 271 271 270 268 267 267 267 267 269 271 274 277 278 277 276 275 273 274 276 279 281 284 287 289 290 288 280 267 259 261 265 266 267
236 238 239 238 236 235 234 233 234 237 239 239 239 238 237 238 240 242 242 242 243 245 246 247 247 245 244 243 242 243 244 246 247 249 250 251 252 253 254 256 257 259 261 262 262 263 264 263 264 265 266 267 268 268 268 267 267 266 265 265 265 266 268 271 275 276 277 277 275 274 273 274 277 280 281 281 283 285 286 285 280 271 261 258 262 266 268 268
230 232 235 237 236 234 234 235 235 237 239 240 241 240 239 241 245 246 246 244 244 245 246 247 247 247 247 246 245 245 246 247 248 250 251 253 254 255 256 258 259 260 260 261 262 262 263 263 263 264 264 265 265 265 264 264 264 264 265 265 266 267 269 272 274 274 275 275 275 275 275 276 280 280 281 282 284 284 281 275 270 264 259 259 264 269 270 270
226 227 228 232 235 234 233 234 236 238 240 241 242 242 242 244 247 248 248 247 247 247 248 248 249 249 249 249 249 248 248 249 249 250 252 254 255 255 256 257 258 259 260 260 261 261 262 262 262 262 262 262 262 262 262 262 263 263 263 264 267 269 270 270 271 272 273 274 274 275 277 280 281 279 280 283 284 281 275 267 261 259 259 261 266 269 271 272
229 228 224 224 231 234 234 235 237 240 242 243 244 243 243 243 245 248 250 249 249 249 249 250 251 251 252 253 253 253 252 252 252 252 253 254 254 254 255 256 257 258 259 259 260 260 260 261 261 260 261 261 261 261 261 261 261 262 263 264 266 267 267 268 270 272 273 273 274 276 277 279 280 279 282 284 282 276 268 261 256 256 258 261 265 269 272 274
236 235 229 220 222 229 232 234 237 240 243 244 245 244 243 242 242 246 249 249 249 249 249 249 251 252 253 253 253 254 254 253 253 253 253 253 253 252 253 254 255 256 258 258 259 259 259 260 260 260 260 260 260 259 259 260 261 262 263 265 265 266 268 269 270 271 272 274 274 275 276 278 280 283 285 283 277 269 262 259 258 258 259 261 265 270 272 274
238 239 231 220 219 222 225 230 233 236 239 242 244 245 245 244 242 243 246 247 248 248 248 248 250 251 252 252 253 253 254 254 254 254 254 253 253 253 252 253 254 255 257 257 258 258 258 259 258 258 258 259 259 258 258 259 261 262 264 265 266 267 268 268 269 270 271 273 274 275 278 279 280 283 283 278 271 264 261 262 263 262 262 263 267 270 273 275
240 239 230 223 225 221 220 227 230 233 236 239 242 244 245 245 244 243 244 245 246 247 248 248 248 250 250 251 252 252 253 254 254 254 254 254 254 253 252 252 253 254 255 256 256 256 256 256 256 256 256 257 258 259 260 261 262 262 263 264 265 266 267 268 268 268 268 269 273 277 279 278 278 279 277 270 265 262 262 264 264 264 265 267 270 272 274 276
241 239 230 227 232 227 222 228 232 233 235 236 238 240 241 242 242 242 243 243 244 246 247 248 248 249 250 250 251 252 253 254 255 255 254 254 254 252 250 251 253 253 254 256 256 256 258 258 258 257 255 256 258 259 260 260 260 261 261 262 263 263 264 264 265 267 269 271 274 277 276 273 273 275 273 268 263 262 263 264 265 266 268 269 272 274 276 278
241 239 232 229 235 234 230 233 235 236 236 235 236 238 238 239 239 240 240 241 242 243 245 246 247 248 249 249 250 251 253 254 254 254 254 254 254 253 253 254 255 255 255 257 257 257 259 259 258 255 253 254 256 256 257 258 259 260 260 260 260 261 264 267 270 273 273 272 272 272 272 270 270 272 273 272 268 265 263 264 266 268 269 271 273 276 279 282
241 240 235 233 236 236 236 236 237 237 237 235 236 237 238 237 238 239 240 241 242 243 243 244 245 246 247 248 248 249 251 253 254 254 255 256 255 255 256 257 257 257 258 258 257 257 258 258 257 256 255 255 256 256 256 257 257 258 259 261 263 267 270 271 271 270 267 268 268 267 269 270 270 272 274 273 271 269 267 267 268 268 269 271 274 277 280 282
239 238 237 236 235 236 237 237 236 237 240 239 237 238 238 238 238 239 240 242 243 243 244 244 244 245 246 247 247 248 249 251 253 254 255 256 256 256 257 258 258 258 258 257 257 258 258 258 257 257 256 255 254 254 254 255 258 261 264 266 269 271 271 269 268 266 266 267 266 264 267 270 272 274 275 274 273 272 271 271 271 270 271 272 276 279 280 281
237 236 236 236 236 235 236 237 237 237 241 243 241 240 239 238 238 239 240 241 242 242 244 245 245 246 247 249 249 250 250 251 253 253 254 255 255 254 255 257 258 258 257 256 257 258 258 256 255 254 254 253 253 254 257 261 265 267 268 268 268 267 267 266 265 264 264 264 262 263 268 273 273 273 276 278 278 275 272 271 271 272 274 276 279 280 279 280
237 235 234 235 236 236 236 237 238 237 237 241 242 241 240 238 237 238 239 238 239 241 243 244 244 245 246 247 248 250 251 251 252 252 253 254 254 254 255 256 257 256 257 258 258 258 257 255 253 252 253 254 256 258 260 262 263 262 261 260 260 259 258 257 256 259 262 262 261 266 271 272 273 276 279 280 277 274 273 272 272 274 276 277 277 278 278 280
237 236 235 234 235 237 236 236 238 238 236 238 242 242 241 239 237 237 238 238 238 240 241 242 243 243 244 245 247 248 249 250 251 252 252 252 253 254 253 254 254 255 256 258 258 256 256 256 254 253 255 256 258 259 258 258 258 257 255 255 256 256 255 255 256 260 262 261 263 269 270 269 272 275 276 274 272 272 273 275 276 276 276 275 276 278 280 281
238 238 236 234 234 235 236 236 238 240 239 238 240 242 243 240 236 235 237 237 237 238 239 240 241 242 244 246 247 248 249 250 251 252 251 251 251 251 251 251 253 255 257 258 257 257 257 257 257 258 258 257 257 257 256 255 255 254 253 254 254 255 255 257 259 262 262 262 265 267 266 268 271 270 268 269 271 274 276 276 277 277 277 278 278 280 280 280
238 238 237 236 234 234 236 236 236 238 239 239 238 239 242 242 238 236 237 237 237 238 240 241 241 242 244 246 248 249 249 250 251 250 250 250 250 250 249 250 253 255 256 257 257 258 258 258 259 261 260 258 255 253 252 252 252 252 251 252 253 255 256 257 258 259 259 260 263 264 266 271 273 269 268 270 272 273 274 274 276 277 278 279 279 280 280 280
239 239 238 238 236 234 234 235 234 233 235 238 239 238 240 243 242 239 238 239 240 242 243 243 241 240 243 246 248 249 250 252 253 252 252 252 252 251 252 252 254 255 257 257 257 257 257 258 259 261 260 257 253 250 250 250 250 249 248 249 251 253 254 254 254 255 257 261 265 268 270 273 274 272 272 271 269 269 271 273 275 277 278 278 278 278 278 279
239 239 239 239 238 235 234 234 234 233 231 232 236 238 240 242 240 238 240 242 244 246 247 246 242 241 243 245 246 249 252 255 255 253 251 251 251 251 251 252 252 253 256 257 257 257 257 256 256 256 257 255 252 250 250 251 249 246 245 248 250 251 252 254 255 257 261 266 269 270 271 276 278 275 271 269 268 270 272 273 273 273 274 275 276 276 276 277
238 239 239 240 239 237 235 234 234 234 232 231 231 233 237 239 238 237 240 243 244 246 248 247 243 242 242 243 245 249 251 251 250 249 248 247 246 247 247 247 248 249 251 253 253 254 255 254 253 253 255 255 254 252 251 249 246 244 247 251 252 252 254 256 259 262 265 268 268 268 271 274 274 271 269 270 271 271 271 271 271 271 272 274 275 276 276 276
Height
5824 5826 5827 5829 5831 5832 5834 5836 5838 5840 5841 5843 5844 5846 5847 5849 5850 5852 5853 5855 5856 5858 5859 5860 5862 5863 5864 5866 5867 5868 5869 5870 5872 5873 5874 5875 5876 5877 5878 5879 5879 5880 5881 5882 5883 5883 5884 5884 5885 5885 5885 5886 5886 5886 5886 5886 5886 5886 5886 5886 5886 5886 5886 5886 5886 5886 5885 5885 5885 5884 5883 5883 5884 5884 5883 5882 5882 5881 5881 5880 5880 5880 5879 5879 5879 5879 5878 5877
5822 5823 5825 5827 5828 5830 5832 5834 5836 5837 5839 5841 5842 5844 5845 5847 5848 5850 5851 5853 5855 5856 5857 5859 5860 5862 5863 5864 5866 5867 5868 5869 5871 5872 5873 5874 5875 5876 5877 5878 5878 5879 5880 5881 5882 5882 5883 5883 5884 5884 5884 5885 5885 5885 5885 5885 5885 5885 5885 5884 5885 5885 5885 5885 5885 5885 5884 5884 5884 5883 5882 5882 5883 5882 5882 5881 5881 5880 5880 5879 5879 5879 5878 5878 5877 5877 5877 5876
5819 5821 5823 5824 5826 5828 5830 5831 5833 5835 5837 5838 5840 5842 5843 5845 5846 5848 5850 5851 5853 5854 5856 5857 5859 5860 5862 5863 5864 5866 5867 5868 5869 5870 5872 5873 5874 5875 5876 5877 5877 5878 5879 5880 5881 5881 5882 5882 5883 5883 5883 5884 5884 5884 5884 5884 5884 5884 5883 5883 5883 5883 5883 5883 5883 5883 5883 5883 5883 5882 5881 5881 5881 5881 5881 5880 5880 5879 5878 5878 5877 5877 5877 5876 5876 5876 5875 5875
5816 5818 5820 5822 5824 5825 5827 5829 5831 5832 5834 5836 5838 5839 5841 5843 5844 5846 5848 5849 5851 5852 5854 5855 5857 5859 5860 5862 5863 5864 5866 5867 5868 5869 5870 5871 5872 5873 5874 5875 5876 5877 5878 5879 5880 5880 5881 5881 5882 5882 5882 5883 5883 5883 5883 5883 5883 5883 5882 5882 5882 5882 5882 5882 5882 5882 5881 5881 5881 5881 5881 5880 5880 5880 5880 5879 5878 5878 5877 5877 5876 5875 5875 5874 5874 5874 5873 5873
5814 5816 5817 5819 5821 5823 5824 5826 5828 5830 5832 5833 5835 5837 5839 5840 5842 5844 5845 5847 5849 5850 5852 5854 5855 5857 5859 5860 5861 5863 5864 5865 5866 5868 5869 5870 5871 5872 5873 5874 5875 5876 5877 5878 5878 5879 5879 5880 5880 5881 5881 5882 5882 5882 5882 5882 5882 5881 5881 5881 5881 5881 5881 5881 5881 5880 5880 5880 5880 5880 5879 5879 5879 5878 5878 5878 5877 5877 5876 5876 5875 5874 5873 5872 5871 5871 5871 5870
5810 5812 5814 5816 5818 5820 5822 5823 5825 5827 5829 5831 5833 5834 5836 5838 5840 5841 5843 5845 5846 5848 5850 5852 5853 5855 5857 5858 5860 5861 5862 5863 5865 5866 5867 5868 5869 5870 5872 5873 5874 5874 5875 5876 5877 5877 5878 5879 5879 5880 5880 5880 5880 5881 5881 5880 5880 5880 5880 5880 5880 5880 5880 5880 5879 5879 5879 5878 5878 5878 5878 5878 5878 5877 5877 5876 5875 5875 5875 5874 5874 5873 5871 5870 5869 5868 5868 5868
5807 5809 5811 5813 5815 5817 5819 5820 5822 5824 5826 5828 5830 5832 5834 5836 5837 5839 5841 5842 5844 5846 5848 5849 5851 5853 5855 5856 5858 5859 5860 5862 5863 5864 5865 5867 5868 5869 5870 5871 5872 5873 5874 5875 5875 5876 5877 5877 5878 5878 5878 5878 5879 5879 5879 5879 5879 5879 5878 5878 5878 5878 5878 5878 5878 5878 5878 5877 5877 5876 5876 5876 5877 5876 5875 5875 5874 5874 5873 5873 5872 5871 5870 5869 5867 5866 5866 5866
5803 5805 5807 5809 5812 5813 5815 5817 5819 5821 5823 5825 5827 5829 5831 5833 5835 5837 5838 5840 5842 5843 5845 5847 5849 5851 5852 5854 5856 5857 5858 5860 5861 5862 5864 5865 5866 5867 5868 5869 5870 5871 5872 5873 5873 5874 5875 5876 5876 5877 5877 5877 5877 5877 5878 5878 5877 5877 5877 5877 5877 5877 5877 5876 5876 5876 5877 5876 5876 5875 5875 5875 5875 5874 5874 5873 5872 5872 5871 5870 5870 5869 5868 5867 5866 5865 5864 5864
5798 5801 5803 5806 5808 5810 5812 5814 5816 5818 5820 5822 5824 5826 5828 5830 5832 5834 5835 5837 5839 5841 5842 5844 5846 5848 5850 5852 5853 5855 5856 5858 5859 5860 5861 5863 5864 5865 5866 5867 5868 5869 5870 5871 5872 5872 5873 5874 5874 5875 5875 5875 5875 5875 5876 5876 5876 5876 5875 5875 5875 5875 5875 5874 5874 5874 5875 5875 5874 5874 5873 5873 5873 5872 5871 5871 5870 5870 5869 5868 5867 5867 5866 5865 5865 5864 5863 5862
5794 5796 5799 5801 5804 5806 5808 5810 5812 5814 5816 5818 5821 5823 5825 5827 5829 5830 5832 5834 5836 5838 5840 5842 5843 5845 5847 5849 5851 5852 5853 5855 5857 5858 5859 5861 5862 5863 5864 5865 5866 5867 5868 5869 5869 5870 5871 5872 5873 5873 5873 5874 5873 5873 5874 5874 5874 5874 5874 5873 5873 5873 5873 5872 5872 5871 5872 5872 5872 5871 5871 5871 5871 5870 5869 5868 5868 5867 5867 5866 5865 5864 5864 5863 5863 5862 5861 5861
5789 5792 5794 5797 5800 5802 5804 5806 5808 5811 5813 5815 5817 5819 5821 5823 5825 5827 5829 5831 5833 5835 5837 5839 5840 5842 5844 5846 5848 5849 5851 5852 5854 5855 5857 5858 5859 5860 5862 5863 5864 5865 5866 5867 5867 5868 5869 5870 5870 5871 5871 5872 5872 5872 5872 5872 5872 5872 5872 5871 5871 5871 5870 5870 5870 5869 5869 5869 5869 5869 5868 5868 5868 5867 5866 5866 5866 5865 5864 5863 5862 5862 5861 5861 5860 5860 5859 5859
5785 5787 5790 5792 5795 5798 5800 5802 5804 5807 5809 5811 5813 5815 5818 5820 5822 5824 5826 5828 5829 5831 5833 5835 5837 5839 5841 5843 5845 5846 5848 5850 5851 5853 5854 5855 5857 5858 5859 5860 5861 5862 5863 5864 5865 5866 5866 5867 5868 5868 5869 5870 5870 5870 5870 5870 5870 5870 5870 5869 5869 5868 5868 5868 5868 5868 5867 5867 5867 5866 5866 5866 5865 5864 5864 5863 5863 5862 5861 5861 5860 5859 5859 5859 5858 5858 5857 5857
5781 5783 5786 5788 5790 5793 5795 5798 5800 5802 5804 5807 5809 5811 5813 5816 5818 5820 5822 5824 5826 5828 5830 5832 5834 5836 5838 5840 5841 5843 5845 5847 5848 5850 5851 5853 5854 5855 5857 5858 5859 5860 5861 5862 5862 5863 5864 5865 5865 5866 5867 5867 5867 5868 5868 5868 5868 5868 5868 5867 5866 5866 5866 5866 5865 5865 5865 5865 5864 5863 5863 5864 5862 5861 5861 5860 5860 5859 5859 5858 5857 5857 5857 5856 5856 5855 5855 5854
5777 5779 5782 5784 5786 5788 5791 5793 5796 5798 5800 5802 5805 5807 5809 5811 5813 5816 5818 5820 5822 5824 5826 5828 5830 5832 5834 5836 5838 5840 5842 5844 5845 5847 5848 5850 5851 5852 5854 5855 5856 5857 5858 5859 5860 5860 5861 5862 5863 5863 5864 5864 5865 5865 5865 5865 5865 5865 5865 5865 5864 5863 5864 5864 5863 5863 5863 5862 5862 5860 5860 5861 5859 5858 5858 5857 5857 5857 5856 5856 5855 5854 5854 5854 5853 5853 5852 5852
5773 5775 5777 5780 5782 5784 5787 5789 5791 5794 5796 5798 5800 5802 5805 5807 5809 5811 5813 5815 5818 5820 5822 5825 5826 5828 5831 5833 5835 5837 5839 5840 5842 5843 5845 5847 5848 5849 5850 5852 5853 5854 5855 5856 5857 5858 5859 5859 5860 5861 5861 5862 5862 5862 5863 5863 5863 5863 5862 5861 5861 5861 5861 5861 5861 5861 5860 5859 5859 5857 5857 5858 5856 5855 5855 5854 5854 5854 5854 5853 5853 5852 5851 5851 5851 5850 5850 5849
5769 5771 5773 5776 5778 5780 5783 5785 5787 5789 5792 5794 5796 5798 5800 5802 5804 5807 5809 5811 5813 5816 5819 5821 5822 5825 5827 5829 5831 5834 5836 5837 5839 5840 5842 5843 5845 5846 5847 5849 5850 5851 5852 5853 5854 5855 5856 5857 5857 5858 5858 5859 5859 5859 5860 5860 5860 5860 5859 5858 5858 5859 5858 5858 5858 5858 5857 5856 5856 5855 5854 5855 5854 5852 5852 5851 5851 5851 5851 5850 5850 5849 5849 5849 5848 5848 5847 5847
5765 5767 5770 5772 5774 5776 5779 5781 5783 5786 5788 5790 5792 5794 5796 5798 5800 5802 5804 5807 5809 5812 5814 5816 5819 5821 5823 5826 5829 5830 5832 5834 5836 5837 5838 5840 5842 5843 5844 5845 5846 5847 5849 5850 5851 5852 5853 5853 5854 5855 5855 5856 5856 5856 5856 5857 5857 5856 5855 5856 5856 5856 5856 5855 5855 5854 5853 5853 5852 5851 5851 5852 5851 5849 5849 5848 5847 5848 5848 5848 5847 5847 5847 5846 5845 5845 5844 5843
5761 5764 5766 5768 5770 5773 5775 5777 5779 5781 5784 5786 5788 5790 5792 5794 5796 5798 5800 5803 5805 5807 5809 5812 5814 5817 5820 5824 5826 5827 5829 5830 5832 5833 5835 5837 5838 5839 5840 5841 5843 5844 5845 5846 5847 5848 5849 5850 5851 5852 5853 5853 5853 5853 5852 5853 5853 5852 5853 5853 5853 5853 5852 5852 5852 5851 5850 5849 5848 5848 5848 5849 5847 5846 5846 5845 5844 5845 5845 5845 5845 5845 5844 5843 5842 5842 5841 5840
5757 5759 5762 5764 5767 5769 5771 5773 5775 5777 5779 5781 5783 5786 5788 5790 5792 5794 5796 5799 5801 5803 5805 5808 5810 5813 5817 5820 5821 5823 5824 5826 5828 5829 5831 5833 5834 5835 5837 5838 5839 5840 5841 5842 5843 5844 5846 5847 5848 5849 5850 5850 5849 5849 5849 5849 5849 5850 5850 5850 5850 5849 5849 5849 5848 5847 5846 5846 5845 5844 5844 5845 5845 5844 5843 5841 5841 5843 5843 5842 5842 5842 5841 5840 5839 5838 5837 5836
5753 5755 5758 5760 5763 5765 5767 5769 5771 5774 5775 5777 5779 5782 5784 5786 5788 5790 5792 5795 5797 5799 5802 5804 5807 5809 5812 5814 5816 5818 5820 5821 5824 5825 5827 5829 5830 5831 5833 5834 5836 5836 5838 5838 5839 5841 5842 5843 5845 5846 5846 5845 5845 5845 5845 5846 5846 5846 5846 5846 5846 5846 5846 5845 5844 5843 5842 5841 5842 5841 5841 5841 5842 5842 5840 5838 5839 5841 5842 5840 5839 5839 5838 5837 5836 5835 5834 5833
5748 5751 5753 5756 5758 5761 5763 5765 5768 5770 5772 5774 5776 5778 5780 5782 5784 5786 5789 5791 5792 5795 5797 5799 5802 5805 5807 5810 5812 5814 5816 5818 5820 5821 5823 5825 5826 5828 5829 5830 5831 5832 5834 5835 5836 5838 5839 5841 5843 5842 5841 5841 5841 5841 5842 5843 5843 5842 5842 5842 5842 5842 5842 5841 5840 5839 5838 5837 5837 5837 5837 5838 5838 5838 5837 5836 5837 5838 5839 5838 5837 5836 5834 5834 5833 5832 5831 5830
5743 5746 5749 5751 5754 5756 5759 5761 5764 5767 5769 5771 5773 5775 5776 5778 5779 5782 5784 5785 5788 5790 5792 5795 5798 5801 5803 5805 5808 5810 5812 5814 5816 5817 5819 5821 5822 5823 5824 5826 5827 5828 5830 5831 5833 5834 5835 5838 5839 5837 5837 5838 5837 5838 5838 5838 5838 5838 5838 5838 5839 5839 5838 5837 5836 5835 5833 5832 5833 5833 5832 5834 5834 5834 5834 5835 5835 5835 5835 5834 5833 5832 5831 5830 5829 5828 5827 5826
5738 5741 5744 5746 5749 5751 5754 5757 5759 5763 5765 5767 5769 5771 5772 5774 5776 5777 5778 5780 5783 5785 5788 5791 5794 5796 5799 5801 5803 5806 5808 5810 5811 5813 5814 5816 5817 5818 5820 5821 5823 5824 5826 5827 5828 5829 5832 5834 5834 5833 5833 5834 5834 5834 5834 5834 5835 5835 5835 5835 5835 5834 5833 5833 5832 5831 5830 5828 5828 5828 5827 5828 5830 5830 5831 5832 5832 5832 5831 5830 5829 5828 5827 5826 5825 5824 5823 5822
5734 5736 5738 5741 5743 5746 5749 5752 5755 5759 5761 5763 5765 5765 5767 5769 5771 5772 5773 5774 5777 5781 5784 5787 5789 5792 5795 5796 5799 5801 5803 5805 5806 5808 5809 5811 5812 5813 5816 5817 5818 5820 5822 5823 5824 5826 5829 5829 5829 5829 5829 5829 5830 5830 5830 5830 5830 5831 5831 5831 5831 5830 5828 5828 5827 5826 5826 5825 5824 5824 5821 5821 5825 5826 5827 5829 5828 5828 5827 5826 5825 5824 5823 5822 5821 5820 5819 5818
5728 5730 5733 5736 5738 5741 5744 5747 5752 5755 5756 5758 5760 5760 5762 5765 5766 5767 5768 5767 5770 5777 5780 5782 5785 5788 5791 5792 5794 5797 5798 5800 5803 5804 5805 5807 5808 5810 5812 5813 5814 5817 5818 5818 5819 5822 5824 5824 5824 5825 5825 5825 5826 5826 5826 5825 5826 5827 5827 5827 5826 5825 5824 5823 5823 5822 5821 5821 5821 5820 5815 5814 5820 5822 5824 5826 5824 5824 5824 5823 5822 5820 5818 5818 5816 5815 5814 5813
5722 5724 5727 5730 5733 5735 5738 5744 5749 5749 5750 5753 5754 5755 5757 5760 5761 5762 5763 5760 5763 5771 5776 5778 5781 5783 5786 5787 5790 5792 5792 5795 5799 5799 5801 5803 5804 5806 5807 5809 5811 5813 5814 5813 5814 5817 5820 5820 5819 5820 5821 5821 5821 5822 5822 5821 5821 5822 5822 5823 5821 5820 5820 5819 5819 5817 5816 5816 5817 5816 5811 5808 5813 5818 5821 5821 5820 5820 5820 5820 5819 5816 5814 5814 5813 5811 5810 5809
5715 5718 5721 5724 5727 5729 5734 5741 5743 5743 5746 5747 5747 5750 5753 5754 5755 5757 5758 5754 5757 5767 5772 5774 5775 5778 5781 5783 5785 5786 5786 5791 5795 5794 5797 5798 5799 5801 5803 5804 5807 5808 5809 5808 5809 5813 5815 5815 5815 5816 5816 5816 5817 5818 5818 5817 5817 5817 5818 5818 5816 5816 5816 5815 5814 5813 5812 5812 5810 5810 5809 5806 5807 5812 5817 5816 5814 5815 5817 5816 5814 5812 5810 5809 5808 5808 5807 5806
5710 5712 5714 5718 5721 5724 5730 5734 5736 5739 5740 5740 5741 5744 5746 5748 5748 5750 5750 5747 5752 5762 5765 5768 5771 5772 5775 5777 5779 5780 5780 5786 5788 5788 5792 5793 5793 5796 5797 5800 5802 5803 5803 5803 5805 5808 5809 5809 5811 5812 5811 5812 5814 5814 5813 5813 5812 5812 5813 5812 5812 5812 5811 5810 5810 5809 5808 5807 5804 5804 5806 5804 5803 5807 5810 5808 5809 5812 5813 5812 5810 5808 5806 5805 5805 5804 5803 5802
5703 5706 5709 5712 5714 5718 5723 5727 5731 5732 5732 5734 5735 5737 5739 5740 5741 5742 5740 5741 5750 5756 5758 5762 5766 5767 5769 5770 5773 5774 5776 5779 5781 5784 5787 5787 5788 5791 5793 5796 5797 5797 5798 5799 5801 5803 5803 5804 5806 5807 5808 5809 5810 5809 5808 5808 5808 5808 5808 5807 5807 5807 5807 5806 5805 5804 5803 5801 5800 5801 5803 5802 5799 5801 5803 5802 5804 5807 5807 5806 5805 5803 5802 5801 5801 5800 5799 5799
5696 5700 5703 5704 5708 5713 5717 5722 5726 5724 5725 5728 5728 5730 5732 5731 5733 5733 5731 5739 5749 5750 5750 5756 5760 5762 5764 5765 5767 5769 5771 5774 5776 5779 5781 5782 5784 5786 5788 5790 5791 5791 5793 5794 5797 5798 5797 5798 5800 5801 5804 5805 5804 5803 5803 5803 5803 5803 5803 5803 5803 5802 5802 5802 5800 5800 5798 5795 5796 5798 5800 5799 5795 5794 5797 5798 5799 5801 5801 5800 5799 5798 5797 5797 5797 5796 5796 5795
5690 5694 5696 5699 5704 5707 5711 5717 5719 5717 5719 5721 5720 5722 5723 5723 5724 5722 5725 5741 5748 5744 5744 5750 5755 5758 5759 5761 5762 5765 5767 5769 5772 5773 5775 5778 5779 5780 5783 5784 5786 5787 5788 5790 5792 5793 5792 5793 5794 5796 5798 5798 5798 5797 5797 5797 5798 5798 5798 5798 5798 5797 5796 5795 5794 5794 5792 5791 5794 5795 5795 5794 5789 5788 5792 5793 5793 5795 5795 5794 5793 5793 5792 5792 5792 5792 5792 5792
5684 5687 5690 5694 5697 5700 5705 5711 5712 5709 5710 5712 5712 5713 5715 5713 5711 5712 5727 5743 5740 5735 5739 5743 5748 5752 5753 5756 5757 5759 5761 5763 5765 5767 5768 5771 5772 5775 5778 5779 5781 5781 5782 5785 5786 5786 5787 5788 5789 5789 5790 5792 5792 5792 5792 5793 5793 5794 5794 5794 5792 5791 5790 5788 5788 5788 5788 5790 5791 5791 5789 5786 5782 5785 5790 5790 5790 5790 5789 5788 5788 5788 5788 5788 5788 5788 5788 5788
5677 5681 5683 5686 5690 5695 5700 5704 5703 5701 5702 5704 5702 5703 5704 5699 5700 5713 5729 5735 5729 5729 5736 5738 5740 5743 5745 5749 5751 5753 5755 5756 5759 5761 5761 5764 5766 5769 5772 5774 5776 5776 5777 5780 5780 5780 5781 5782 5783 5783 5784 5786 5786 5787 5788 5788 5788 5788 5787 5787 5786 5785 5783 5782 5783 5784 5785 5786 5786 5785 5782 5777 5776 5782 5786 5788 5788 5785 5784 5784 5783 5783 5783 5784 5784 5784 5785 5785
5671 5674 5676 5679 5684 5688 5692 5695 5695 5694 5695 5696 5693 5693 5690 5687 5699 5717 5724 5724 5723 5726 5731 5731 5731 5734 5737 5742 5746 5748 5750 5751 5753 5755 5756 5758 5759 5763 5767 5768 5771 5772 5773 5774 5774 5774 5774 5775 5778 5779 5779 5780 5780 5781 5782 5782 5781 5780 5780 5780 5779 5779 5778 5778 5781 5780 5779 5779 5778 5777 5775 5771 5773 5778 5780 5782 5783 5782 5781 5780 5778 5778 5779 5779 5780 5781 5781 5781
5664 5666 5669 5672 5674 5679 5684 5687 5687 5686 5685 5686 5684 5680 5677 5684 5703 5714 5714 5716 5718 5719 5724 5724 5722 5726 5729 5734 5739 5742 5744 5745 5748 5749 5749 5751 5754 5758 5761 5763 5765 5766 5767 5767 5767 5768 5767 5769 5773 5773 5773 5773 5773 5774 5775 5774 5774 5774 5774 5773 5772 5775 5776 5776 5776 5774 5773 5772 5770 5770 5768 5768 5771 5774 5774 5775 5777 5777 5776 5774 5773 5773 5774 5775 5777 5777 5777 5778
5657 5659 5661 5662 5667 5673 5677 5678 5680 5678 5677 5677 5672 5666 5671 5687 5702 5706 5705 5710 5713 5715 5719 5717 5715 5720 5724 5727 5732 5735 5737 5740 5742 5743 5744 5746 5749 5752 5755 5758 5759 5759 5761 5761 5761 5762 5761 5762 5765 5765 5765 5766 5766 5767 5767 5768 5768 5767 5767 5767 5769 5771 5772 5771 5769 5768 5768 5765 5764 5764 5763 5765 5767 5768 5770 5771 5771 5771 5770 5769 5768 5768 5770 5772 5772 5773 5773 5773
5651 5652 5652 5656 5663 5668 5669 5672 5673 5670 5669 5667 5660 5660 5674 5688 5697 5698 5699 5704 5707 5709 5711 5710 5711 5716 5719 5722 5725 5728 5731 5732 5734 5736 5738 5740 5741 5746 5750 5752 5752 5753 5755 5756 5755 5755 5755 5755 5757 5757 5757 5759 5760 5760 5760 5760 5760 5760 5760 5762 5765 5765 5764 5764 5762 5762 5762 5759 5758 5759 5759 5761 5761 5762 5766 5767 5765 5765 5764 5764 5764 5765 5766 5767 5768 5768 5769 5769
5643 5642 5645 5653 5659 5661 5663 5666 5665 5663 5662 5656 5650 5658 5673 5683 5690 5692 5691 5695 5699 5701 5702 5704 5707 5710 5712 5714 5718 5720 5721 5723 5726 5729 5731 5732 5733 5740 5744 5744 5746 5748 5749 5749 5747 5748 5749 5748 5749 5750 5750 5751 5752 5753 5752 5753 5753 5754 5755 5757 5758 5757 5757 5758 5756 5756 5756 5753 5753 5754 5754 5756 5757 5758 5761 5761 5760 5759 5759 5760 5761 5762 5763 5763 5764 5764 5764 5765
5634 5634 5640 5649 5652 5653 5657 5659 5657 5655 5652 5645 5643 5655 5669 5678 5684 5683 5681 5686 5690 5691 5693 5697 5702 5703 5703 5707 5711 5712 5712 5714 5719 5720 5722 5725 5728 5734 5738 5738 5740 5741 5741 5740 5739 5741 5742 5740 5741 5743 5743 5743 5744 5744 5745 5747 5748 5749 5750 5750 5751 5750 5750 5750 5750 5750 5750 5748 5748 5749 5750 5751 5753 5755 5755 5755 5755 5755 5754 5756 5757 5757 5758 5759 5759 5760 5760 5760
5626 5628 5637 5644 5644 5646 5651 5652 5648 5642 5639 5638 5641 5653 5665 5671 5673 5673 5675 5679 5681 5682 5686 5692 5696 5695 5696 5701 5703 5704 5705 5706 5710 5712 5714 5718 5721 5727 5730 5731 5732 5734 5734 5732 5732 5734 5734 5732 5733 5735 5735 5735 5736 5738 5740 5742 5743 5743 5743 5743 5743 5744 5744 5743 5743 5743 5743 5743 5745 5745 5746 5746 5747 5748 5749 5750 5750 5751 5751 5752 5753 5753 5754 5754 5754 5755 5755 5756
5617 5622 5632 5637 5635 5638 5641 5639 5636 5633 5631 5632 5639 5650 5658 5660 5662 5665 5668 5670 5671 5675 5680 5684 5686 5687 5690 5694 5694 5696 5697 5698 5701 5704 5706 5710 5715 5719 5723 5725 5726 5727 5726 5724 5726 5728 5727 5727 5728 5728 5728 5729 5730 5733 5734 5734 5734 5735 5735 5736 5736 5736 5736 5735 5735 5737 5739 5740 5742 5741 5739 5741 5742 5740 5742 5746 5747 5748 5748 5748 5748 5749 5749 5749 5749 5750 5751 5751
5608 5617 5627 5629 5626 5629 5630 5626 5626 5627 5625 5627 5637 5646 5648 5650 5653 5656 5658 5661 5664 5669 5672 5675 5678 5680 5683 5686 5687 5688 5688 5689 5692 5695 5698 5704 5708 5712 5716 5717 5717 5718 5718 5718 5720 5722 5720 5719 5720 5719 5721 5723 5723 5724 5725 5726 5727 5727 5726 5727 5727 5728 5729 5730 5731 5734 5735 5735 5735 5734 5733 5736 5737 5735 5737 5741 5742 5743 5744 5744 5744 5744 5744 5744 5745 5745 5746 5746
5603 5612 5617 5617 5618 5620 5619 5616 5618 5620 5618 5624 5634 5636 5637 5643 5647 5648 5651 5654 5657 5662 5664 5667 5670 5672 5675 5678 5679 5679 5681 5682 5684 5688 5693 5697 5701 5706 5708 5707 5708 5709 5710 5711 5714 5715 5712 5711 5713 5713 5715 5716 5717 5718 5719 5719 5718 5717 5718 5720 5722 5724 5727 5726 5727 5727 5727 5727 5728 5727 5727 5729 5731 5730 5733 5736 5737 5738 5739 5739 5739 5739 5739 5739 5739 5740 5740 5741
5597 5601 5603 5605 5609 5610 5608 5607 5611 5612 5614 5621 5625 5625 5630 5636 5638 5640 5645 5648 5651 5655 5656 5659 5663 5666 5668 5670 5670 5672 5675 5675 5676 5682 5687 5688 5692 5698 5698 5697 5699 5700 5701 5704 5707 5706 5704 5705 5707 5707 5707 5709 5709 5709 5710 5711 5711 5712 5716 5718 5719 5721 5721 5719 5719 5719 5719 5722 5722 5720 5720 5724 5725 5725 5727 5730 5732 5732 5732 5733 5733 5733 5733 5734 5734 5734 5735 5735
5586 5588 5591 5596 5599 5599 5599 5602 5606 5607 5610 5614 5616 5618 5623 5626 5630 5636 5641 5642 5644 5647 5649 5652 5657 5659 5661 5662 5663 5665 5668 5669 5672 5676 5678 5679 5684 5689 5688 5689 5690 5691 5693 5696 5697 5697 5697 5698 5699 5698 5698 5700 5701 5703 5707 5709 5709 5710 5713 5714 5714 5715 5713 5712 5714 5712 5712 5715 5714 5712 5716 5720 5720 5720 5722 5725 5726 5726 5726 5727 5727 5727 5727 5728 5728 5728 5729 5729
5575 5578 5583 5587 5589 5590 5593 5598 5599 5599 5603 5607 5608 5611 5614 5618 5625 5632 5632 5633 5637 5641 5642 5645 5648 5650 5651 5654 5656 5658 5660 5664 5665 5665 5668 5673 5677 5680 5681 5682 5682 5684 5686 5687 5688 5689 5690 5690 5691 5691 5692 5695 5698 5699 5702 5703 5702 5703 5706 5707 5706 5707 5706 5705 5705 5704 5705 5707 5707 5708 5712 5714 5715 5716 5718 5719 5719 5719 5720 5720 5721 5722 5722 5722 5722 5722 5723 5724
5565 5569 5576 5580 5580 5582 5587 5591 5591 5592 5598 5602 5601 5604 5608 5613 5619 5622 5621 5625 5632 5634 5635 5636 5639 5640 5642 5646 5650 5650 5653 5656 5655 5657 5662 5667 5670 5672 5673 5674 5675 5676 5678 5679 5679 5681 5681 5680 5683 5685 5687 5691 5693 5692 5694 5695 5694 5696 5698 5699 5700 5700 5699 5697 5697 5698 5700 5700 5703 5706 5707 5708 5711 5714 5713 5713 5713 5713 5714 5714 5714 5715 5715 5716 5717 5716 5717 5718
5558 5563 5569 5571 5571 5574 5580 5584 5586 5588 5593 5595 5594 5598 5602 5606 5610 5611 5614 5621 5625 5625 5625 5626 5628 5632 5636 5641 5643 5643 5645 5647 5647 5650 5657 5660 5661 5663 5664 5666 5667 5669 5671 5670 5671 5673 5673 5673 5677 5679 5680 5685 5685 5684 5686 5688 5688 5689 5691 5692 5694 5694 5692 5691 5693 5695 5694 5694 5698 5700 5700 5703 5709 5710 5708 5708 5709 5709 5709 5708 5707 5708 5708 5709 5710 5711 5712 5712
5552 5557 5560 5561 5563 5568 5574 5578 5580 5581 5584 5586 5587 5591 5595 5599 5602 5606 5611 5614 5613 5615 5617 5617 5622 5629 5632 5634 5635 5634 5637 5639 5641 5646 5651 5652 5653 5655 5656 5658 5661 5663 5664 5664 5665 5666 5665 5666 5670 5671 5672 5676 5677 5677 5680 5680 5680 5682 5683 5686 5689 5688 5687 5687 5688 5688 5686 5688 5692 5693 5695 5700 5704 5704 5704 5706 5706 5705 5703 5702 5702 5702 5703 5704 5705 5705 5706 5705
5545 5549 5551 5552 5555 5562 5566 5568 5569 5572 5576 5578 5578 5583 5588 5592 5597 5601 5604 5604 5604 5609 5611 5611 5618 5626 5626 5626 5626 5625 5630 5635 5637 5642 5645 5644 5645 5648 5650 5652 5655 5657 5657 5657 5659 5660 5660 5661 5665 5665 5664 5667 5670 5671 5672 5672 5672 5673 5676 5680 5682 5681 5679 5678 5680 5681 5680 5683 5689 5690 5691 5695 5697 5700 5701 5701 5700 5699 5698 5698 5699 5698 5698 5698 5699 5700 5700 5699
5537 5540 5543 5544 5547 5553 5556 5558 5560 5563 5567 5569 5571 5577 5582 5587 5593 5596 5595 5595 5598 5603 5605 5606 5615 5620 5617 5617 5617 5619 5627 5633 5633 5635 5637 5636 5639 5642 5644 5645 5648 5649 5650 5651 5652 5653 5654 5656 5659 5658 5655 5658 5664 5664 5663 5665 5664 5663 5668 5674 5675 5671 5669 5670 5675 5676 5676 5681 5685 5684 5684 5689 5693 5695 5694 5692 5692 5692 5693 5694 5694 5693 5693 5692 5692 5693 5693 5692
5530 5532 5535 5536 5538 5542 5546 5549 5551 5552 5556 5562 5568 5572 5575 5580 5586 5586 5585 5587 5592 5596 5599 5602 5608 5609 5606 5606 5611 5617 5624 5626 5624 5626 5628 5629 5632 5634 5634 5636 5638 5639 5642 5643 5644 5645 5647 5648 5651 5651 5648 5652 5657 5656 5657 5658 5653 5652 5662 5670 5667 5663 5664 5667 5671 5672 5673 5676 5677 5675 5679 5685 5686 5685 5684 5684 5685 5686 5686 5687 5686 5687 5688 5687 5687 5686 5685 5685